FW9022 Weather Reports


Display with metric or nautical units.
time (UTC)temp
F
wind
direction
speed
MPH
gust
MPH
rain 1hr
in
rain 24hr
in
rain mn
in
humidity
%
barometer
mb
20260508025830 47 49 0.0 0.0 0.00 0.27 0.24 95 1014.8
20260508024824 47 49 0.0 0.0 0.00 0.27 0.24 95 1014.8
20260508023843 48 49 0.0 1.0 0.00 0.27 0.24 95 1014.5
20260508022836 48 49 0.0 1.0 0.00 0.30 0.24 95 1014.1
20260508021831 48 49 0.0 0.0 0.00 0.30 0.24 94 1014.1
20260508020835 48 49 0.0 1.0 0.00 0.30 0.24 94 1014.0
20260508015819 49 49 0.0 0.0 0.00 0.30 0.24 93 1014.8
20260508014834 49 49 0.0 0.0 0.00 0.30 0.24 93 1014.8
20260508013848 49 49 0.0 0.0 0.00 0.30 0.24 93 1014.5
20260508012840 50 49 0.0 1.0 0.00 0.33 0.24 93 1014.3
20260508011817 50 49 1.0 2.0 0.00 0.33 0.24 92 1014.3
20260508010842 51 49 0.0 0.0 0.00 0.33 0.24 91 1014.2
20260508005823 51 49 0.0 1.0 0.00 0.33 0.24 90 1014.2
20260508004821 52 49 0.0 0.0 0.00 0.33 0.24 90 1014.2
20260508003836 53 49 0.0 0.0 0.00 0.33 0.24 89 1013.8
20260508002830 53 49 0.0 0.0 0.00 0.40 0.24 88 1013.6
20260508001824 54 49 0.0 1.0 0.00 0.40 0.24 85 1013.6
20260508000833 54 49 0.0 4.0 0.00 0.40 0.24 85 1013.5
20260507235833 54 94 0.0 2.0 0.00 0.40 0.24 85 1013.4
20260507234827 54 94 0.0 2.0 0.00 0.40 0.24 85 1013.4
20260507233824 55 103 0.0 3.0 0.00 0.40 0.24 84 1013.4
20260507232819 55 178 0.0 2.0 0.00 0.46 0.24 85 1013.2
20260507231834 55 86 0.0 2.0 0.00 0.46 0.24 85 1013.2
20260507230838 55 348 0.0 6.0 0.00 0.46 0.24 85 1013.4
20260507225822 54 80 2.0 5.0 0.00 0.46 0.24 85 1013.4
20260507224835 54 43 3.0 5.0 0.00 0.46 0.24 85 1013.4
20260507223829 54 22 4.0 6.0 0.00 0.46 0.24 85 1013.0
20260507222827 54 71 2.0 7.0 0.00 0.48 0.24 85 1013.0
20260507221821 54 57 1.0 10.0 0.00 0.48 0.24 85 1013.0
20260507220846 54 5 6.0 11.0 0.00 0.48 0.24 85 1012.6
20260507215825 54 64 3.0 5.0 0.00 0.48 0.24 85 1012.5
20260507214824 55 48 3.0 7.0 0.00 0.48 0.24 85 1012.5
20260507213818 55 79 2.0 7.0 0.00 0.48 0.24 86 1012.3
20260507212853 55 31 4.0 12.0 0.00 0.49 0.24 86 1011.7
20260507211829 56 310 2.0 11.0 0.00 0.49 0.24 85 1011.7
20260507210835 57 315 2.0 10.0 0.00 0.49 0.24 84 1011.2
20260507205834 58 53 2.0 6.0 0.00 0.49 0.24 84 1010.9
20260507204829 58 355 2.0 11.0 0.00 0.49 0.24 84 1010.9
20260507203847 58 17 3.0 6.0 0.00 0.49 0.24 84 1010.9
20260507202841 58 13 2.0 6.0 0.00 0.49 0.24 84 1010.9
20260507201834 58 61 3.0 6.0 0.00 0.49 0.24 84 1010.9
20260507200838 58 22 3.0 7.0 0.00 0.49 0.24 84 1010.9
20260507195822 60 11 4.0 12.0 0.00 0.49 0.24 82 1010.4
20260507194836 61 77 2.0 6.0 0.00 0.49 0.24 81 1010.4
20260507193850 61 38 3.0 5.0 0.00 0.49 0.24 82 1010.3
20260507192823 61 12 4.0 7.0 0.00 0.49 0.24 82 1011.3
20260507191842 62 13 3.0 5.0 0.00 0.49 0.24 82 1011.3
20260507190845 62 28 2.0 4.0 0.00 0.49 0.24 82 1010.9
20260507185826 61 360 0.0 6.0 0.00 0.49 0.24 84 1011.4
20260507184825 61 5 1.0 6.0 0.00 0.49 0.24 83 1011.4
20260507183820 62 49 1.0 4.0 0.00 0.49 0.24 84 1011.4
20260507182834 62 50 3.0 4.0 0.00 0.50 0.24 84 1011.6
20260507181828 61 22 1.0 4.0 0.00 0.50 0.24 84 1011.6
20260507180836 61 66 1.0 5.0 0.00 0.50 0.24 84 1011.5
20260507175835 62 42 1.0 5.0 0.00 0.50 0.24 84 1011.3
20260507174829 63 49 2.0 3.0 0.00 0.50 0.24 84 1011.3
20260507173827 62 100 2.0 3.0 0.00 0.50 0.24 85 1011.1
20260507172820 62 56 2.0 5.0 0.00 0.50 0.24 84 1011.3
20260507171834 62 35 3.0 5.0 0.00 0.50 0.24 86 1011.3
20260507170839 62 62 3.0 5.0 0.00 0.50 0.24 86 1011.1
20260507165823 62 9 2.0 6.0 0.00 0.50 0.24 87 1010.9
20260507164838 62 360 2.0 5.0 0.00 0.50 0.24 87 1010.9
20260507163829 61 11 1.0 5.0 0.00 0.50 0.24 88 1010.9
20260507162843 62 55 1.0 6.0 0.00 0.59 0.24 89 1011.0
20260507161820 62 71 3.0 6.0 0.00 0.59 0.24 90 1011.0
20260507160904 62 32 4.0 6.0 0.00 0.59 0.24 89 1011.4
20260507155823 62 21 3.0 5.0 0.00 0.59 0.24 91 1010.9
20260507154821 62 50 0.0 5.0 0.00 0.59 0.24 91 1010.9
20260507153835 62 14 4.0 6.0 0.01 0.59 0.24 92 1010.7
20260507152830 63 32 3.0 5.0 0.01 0.74 0.24 92 1010.8
20260507151826 63 143 0.0 3.0 0.01 0.74 0.24 93 1010.8
20260507150835 62 35 1.0 4.0 0.01 0.74 0.24 94 1010.8
20260507145834 62 9 0.0 3.0 0.01 0.74 0.24 96 1010.4
20260507144849 61 9 4.0 5.0 0.01 0.74 0.24 96 1010.4
20260507143821 61 43 2.0 4.0 0.00 0.73 0.23 96 1010.8
20260507142840 62 67 1.0 4.0 0.00 0.73 0.23 96 1010.8
20260507141833 62 80 2.0 4.0 0.00 0.73 0.23 97 1010.8
20260507140837 63 132 0.0 0.0 0.00 0.73 0.23 98 1010.7
20260507135820 62 132 0.0 0.0 0.00 0.73 0.23 98 1010.8
20260507134835 62 132 0.0 2.0 0.00 0.73 0.23 98 1010.8
20260507133829 61 132 3.0 4.0 0.00 0.73 0.23 98 1011.4
20260507132823 61 128 0.0 2.0 0.00 0.73 0.23 98 1011.3
20260507131821 61 128 0.0 1.0 0.00 0.73 0.23 98 1011.3
20260507130847 61 128 0.0 0.0 0.00 0.73 0.23 98 1010.7
20260507125826 61 128 0.0 0.0 0.00 0.73 0.23 98 1010.7
20260507124824 61 128 0.0 0.0 0.00 0.73 0.23 98 1010.7
20260507123819 60 128 0.0 0.0 0.00 0.73 0.23 98 1011.0
20260507122834 60 128 0.0 0.0 0.01 0.73 0.23 98 1010.5
20260507121827 60 128 0.0 0.0 0.03 0.73 0.23 98 1010.5
20260507120836 60 128 0.0 1.0 0.05 0.73 0.23 98 1010.8
20260507115837 60 128 0.0 0.0 0.08 0.73 0.23 98 1010.8
20260507114832 60 128 0.0 2.0 0.11 0.73 0.23 98 1010.8
20260507113830 60 217 0.0 0.0 0.13 0.73 0.23 98 1011.3
20260507112824 59 217 0.0 0.0 0.13 0.72 0.22 98 1011.8
20260507111858 59 217 0.0 1.0 0.12 0.70 0.20 98 1011.8
20260507110842 59 217 0.0 0.0 0.10 0.68 0.18 98 1011.9
20260507105846 60 217 0.0 0.0 0.07 0.65 0.15 98 1012.0
20260507104819 60 217 0.0 0.0 0.04 0.62 0.12 98 1012.0
20260507103832 59 217 0.0 1.0 0.02 0.60 0.10 98 1011.0
20260507102826 60 217 0.0 0.0 0.01 0.59 0.09 98 1010.8
20260507101824 60 217 0.0 0.0 0.00 0.58 0.08 98 1010.8
20260507100849 60 217 0.0 1.0 0.00 0.58 0.08 98 1011.2
20260507095828 60 217 0.0 0.0 0.00 0.58 0.08 98 1010.9
20260507094826 60 217 0.0 0.0 0.00 0.58 0.08 98 1010.9
20260507093819 60 217 0.0 0.0 0.00 0.58 0.08 98 1010.1
20260507092854 59 217 0.0 1.0 0.00 0.58 0.08 98 1010.6
20260507091826 59 217 0.0 1.0 0.00 0.58 0.08 98 1010.6
20260507090834 59 217 0.0 0.0 0.00 0.58 0.08 98 1010.3
20260507085834 60 217 0.0 0.0 0.00 0.58 0.08 98 1010.2
20260507084827 60 217 0.0 0.0 0.00 0.58 0.08 98 1010.2
20260507083821 60 217 0.0 0.0 0.00 0.58 0.08 98 1010.1
20260507082819 60 217 0.0 0.0 0.00 0.58 0.08 98 1010.2
20260507081833 60 217 0.0 1.0 0.00 0.58 0.08 98 1010.2
20260507080839 60 217 0.0 0.0 0.00 0.58 0.08 98 1010.3
20260507075822 60 217 0.0 2.0 0.00 0.58 0.08 98 1011.2
20260507074835 60 218 0.0 2.0 0.00 0.58 0.08 98 1011.2
20260507073849 60 215 2.0 4.0 0.01 0.58 0.08 98 1010.3
20260507072822 60 175 0.0 0.0 0.01 0.58 0.08 98 1010.6
20260507071820 60 175 0.0 0.0 0.01 0.58 0.08 98 1010.6
20260507070845 61 175 0.0 0.0 0.01 0.58 0.08 98 1010.6
20260507065824 61 175 0.0 0.0 0.01 0.58 0.08 98 1010.7
20260507064821 61 175 0.0 0.0 0.01 0.58 0.08 98 1010.7
20260507063836 61 175 0.0 0.0 0.00 0.57 0.07 98 1011.2
20260507062829 61 175 0.0 0.0 0.00 0.57 0.07 98 1011.3
20260507061823 61 175 0.0 0.0 0.01 0.57 0.07 98 1011.3
20260507060852 61 175 0.0 1.0 0.01 0.57 0.07 98 1012.1
20260507055830 61 175 0.0 1.0 0.04 0.57 0.07 98 1012.1
20260507054823 61 175 0.0 0.0 0.05 0.57 0.07 98 1012.1
20260507053838 61 175 0.0 1.0 0.05 0.57 0.07 98 1012.9
20260507052834 61 175 0.0 0.0 0.06 0.57 0.07 98 1012.7
20260507051828 61 175 0.0 0.0 0.06 0.57 0.07 97 1012.7
20260507050912 61 175 0.0 2.0 0.06 0.56 0.06 97 1013.5
20260507045851 61 175 0.0 0.0 0.04 0.53 0.03 97 1013.4
20260507044827 61 175 0.0 0.0 0.03 0.52 0.02 97 1013.4
20260507043821 61 175 0.0 2.0 0.05 0.52 0.02 97 1013.5
20260507042835 61 175 0.0 0.0 0.04 0.51 0.01 97 1013.7
20260507041828 61 175 0.0 1.0 0.04 0.51 0.01 97 1013.7
20260507040837 61 175 0.0 0.0 0.03 0.50 0.00 97 1013.8
20260507035817 61 175 0.0 1.0 0.02 0.49 0.49 97 1013.0
20260507034851 61 175 0.0 2.0 0.02 0.49 0.49 97 1013.0
20260507033827 62 175 0.0 0.0 0.00 0.47 0.47 97 1013.2
20260507032822 61 175 0.0 0.0 0.00 0.47 0.47 97 1013.3
20260507031835 61 175 0.0 1.0 0.00 0.47 0.47 97 1013.3
20260507030840 61 175 0.0 3.0 0.00 0.47 0.47 97 1013.5